Location: Writing-on-Stone Provincial Park
(49.0825°N, 111.6163°W)
Time: 02:09:57
(UTC-06:00)

Amateur Radio Satellites - All Passes

Search period start: 30 August 2014 01:39
Search period end: 31 August 2014 01:39
Location: Writing-on-Stone Provincial Park, 49.0825°N, 111.6163°W

Satellite Date Start Highest point End Downlink Frequencies (MHz)
Time Altitude Azimuth
PCSat 30 Aug 02:02:47 02:08:08 53° 48° (NE) 02:13:26 145.825 MHz
Oscar 19 30 Aug 02:13:34 02:17:51 25° 93° (E) 02:22:05 437.125 CW, 437.150 USB
AO-40 30 Aug 02:22:25 03:27:34 13° 226° (SW) 04:58:38 Beacon 2401.320
KITSAT 1 30 Aug 02:22:40 02:30:30 50° 320° (NW) 02:38:21 435.175 FM
JAS-1B 30 Aug 02:26:06 02:30:25 17° 82° (E) 02:34:21 435.800 - 435.900 CW/SSB
ITAMSAT 1 30 Aug 02:44:10 02:48:06 21° 91° (E) 02:52:01 435.822 SSB
Saudisat 1A 30 Aug 02:46:16 02:48:49 15° 340° (NNW) 02:51:23 436.775 MHz
Oscar 16 30 Aug 02:47:50 02:52:54 49° 99° (E) 02:57:56 437.025 USB, Beacon 2401.1428
AO-Echo 30 Aug 02:48:00 02:51:47 24° 93° (E) 02:55:33 ?
Uribyol 2 30 Aug 02:54:03 02:58:27 27° 94° (E) 03:02:51 436.500 FM
AO-27 30 Aug 03:12:26 03:17:14 37° 97° (E) 03:22:01 436.795 MHz FM
Sapphire 30 Aug 03:16:38 03:21:56 54° 242° (WSW) 03:27:12 437.095 MHz 1200 baud AX-25 AFSK
Oscar 10/S400 30 Aug 03:20:45 04:23:17 35° 223° (SW) 08:53:30 145.825 - 145.975 CW/USB, Beacon 145.810 USB
Gurwin Techsat 1B 30 Aug 03:35:53 03:40:30 29° 94° (E) 03:45:06 435.225 FM
PCSat 30 Aug 03:46:37 03:51:19 31° 248° (WSW) 03:56:00 145.825 MHz
Oscar 19 30 Aug 03:52:25 03:57:29 52° 291° (WNW) 04:02:30 437.125 CW, 437.150 USB
OPAL 30 Aug 04:05:53 04:10:38 42° 64° (ENE) 04:15:29 ?
JAS-1B 30 Aug 04:15:12 04:22:25 88° 286° (WNW) 04:28:29 435.800 - 435.900 CW/SSB
KITSAT 1 30 Aug 04:21:31 04:28:00 25° 347° (NNW) 04:34:30 435.175 FM
ITAMSAT 1 30 Aug 04:22:54 04:28:01 61° 290° (WNW) 04:33:07 435.822 SSB
AO-Echo 30 Aug 04:26:19 04:30:49 46° 291° (WNW) 04:35:18 ?
TMSAT-1 30 Aug 04:27:37 04:32:52 59° 101° (E) 04:38:05 436.925 FM
Oscar 16 30 Aug 04:27:39 04:32:01 28° 298° (WNW) 04:36:23 437.025 USB, Beacon 2401.1428
Saudisat 1A 30 Aug 04:29:01 04:30:16 11° 5° (N) 04:31:32 436.775 MHz
Uribyol 2 30 Aug 04:33:11 04:38:09 48° 292° (WNW) 04:43:08 436.500 FM
AO-7 30 Aug 04:40:16 04:46:50 25° 91° (E) 04:53:21 29.400 - 29.500 MHz
AO-27 30 Aug 04:52:03 04:56:45 36° 296° (WNW) 05:01:26 436.795 MHz FM
SO-50 30 Aug 05:02:16 05:06:41 62° 124° (SE) 05:11:15 436.795 FM
Gurwin Techsat 1B 30 Aug 05:15:36 05:20:40 46° 293° (WNW) 05:25:42 435.225 FM
Uosat F 30 Aug 05:15:54 05:20:26 33° 96° (E) 05:24:56 435.120 FM
UOSAT-12 30 Aug 05:28:47 05:30:47 13° 108° (ESE) 05:32:48 437.025 FM, 437.400 FM
Oscar 19 30 Aug 05:35:20 05:35:42 10° 311° (NW) 05:36:04 437.125 CW, 437.150 USB
OPAL 30 Aug 05:45:09 05:49:38 31° 263° (W) 05:54:13 ?
STRAND 1 30 Aug 05:49:56 05:53:31 20° 57° (ENE) 05:57:07 ?
ITAMSAT 1 30 Aug 06:04:47 06:06:31 12° 310° (NW) 06:08:15 435.822 SSB
JAS-1B 30 Aug 06:06:49 06:11:55 21° 312° (NW) 06:16:31 435.800 - 435.900 CW/SSB
Saudisat 1A 30 Aug 06:08:10 06:11:32 21° 29° (NNE) 06:14:52 436.775 MHz
TMSAT-1 30 Aug 06:08:13 06:12:27 25° 300° (WNW) 06:16:40 436.925 FM
KITSAT 1 30 Aug 06:19:42 06:26:22 27° 17° (NNE) 06:33:00 435.175 FM
AO-7 30 Aug 06:32:15 06:40:36 84° 292° (WNW) 06:48:53 29.400 - 29.500 MHz
SO-50 30 Aug 06:43:40 06:47:37 28° 326° (NW) 06:51:39 436.795 FM
Hamsat 30 Aug 06:50:26 06:54:20 31° 95° (E) 06:58:11 145.90 MHz
Uosat F 30 Aug 06:54:40 06:59:16 38° 295° (WNW) 07:03:51 435.120 FM
UOSAT-12 30 Aug 07:05:30 07:10:09 80° 127° (SE) 07:14:54 437.025 FM, 437.400 FM
JAS-2 30 Aug 07:13:00 07:18:01 46° 99° (E) 07:23:17 435.800 - 435.900 CW/SSB, 435.910 FM
RS-15 30 Aug 07:13:57 07:22:00 24° 101° (E) 07:29:57 29.354 - 29.394 USB, Beacon 29.352 USB
STRAND 1 30 Aug 07:27:06 07:32:12 73° 257° (WSW) 07:37:19 ?
Saudisat 1A 30 Aug 07:47:19 07:51:46 84° 50° (NE) 07:56:11 436.775 MHz
SO-67 30 Aug 08:09:21 08:12:27 30° 96° (E) 08:15:32 435.3500 MHz FM
KITSAT 1 30 Aug 08:15:40 08:23:38 57° 44° (NE) 08:31:34 435.175 FM
AO-7 30 Aug 08:25:55 08:32:21 26° 314° (NW) 08:38:46 29.400 - 29.500 MHz
Hamsat 30 Aug 08:26:25 08:30:17 32° 293° (WNW) 08:34:08 145.90 MHz
SO-50 30 Aug 08:27:32 08:29:42 13° 350° (N) 08:31:55 436.795 FM
UOSAT-12 30 Aug 08:46:58 08:50:51 25° 329° (NNW) 08:54:47 437.025 FM, 437.400 FM
HO-68 30 Aug 08:55:12 08:58:49 14° 84° (E) 09:02:26 435.675 MHz FM
JAS-2 30 Aug 08:58:37 09:03:01 29° 298° (WNW) 09:07:35 435.800 - 435.900 CW/SSB, 435.910 FM
STRAND 1 30 Aug 09:11:14 09:12:18 11° 275° (W) 09:13:22 ?
RS-15 30 Aug 09:21:37 09:32:38 82° 125° (SE) 09:43:36 29.354 - 29.394 USB, Beacon 29.352 USB
Saudisat 1A 30 Aug 09:28:16 09:30:45 15° 249° (WSW) 09:33:13 436.775 MHz
SO-67 30 Aug 09:42:41 09:45:22 21° 294° (WNW) 09:48:02 435.3500 MHz FM
SO-50 30 Aug 10:09:40 10:12:14 14° 15° (NNE) 10:14:50 436.795 FM
UKube-1 30 Aug 10:10:38 10:14:04 22° 93° (E) 10:17:29 145.840 MHz, 145.915 MHz
KITSAT 1 30 Aug 10:11:23 10:18:56 45° 247° (WSW) 10:26:27 435.175 FM
Oscar 11 30 Aug 10:17:27 10:20:34 19° 91° (E) 10:23:39 145.825 FM, Beacon 2401.500 USB
UOSAT-12 30 Aug 10:30:30 10:32:38 13° 353° (N) 10:34:47 437.025 FM, 437.400 FM
HO-68 30 Aug 10:40:41 10:47:51 70° 105° (ESE) 10:54:59 435.675 MHz FM
FUNcube-1 30 Aug 10:42:06 10:44:43 15° 89° (E) 10:47:21 145.950 - 145.970 MHz USB
JAS-1B 30 Aug 11:31:05 11:32:27 10° 34° (NE) 11:33:47 435.800 - 435.900 CW/SSB
RS-15 30 Aug 11:35:43 11:46:06 45° 333° (NNW) 11:56:34 29.354 - 29.394 USB, Beacon 29.352 USB
ISS 30 Aug 11:45:53 11:48:45 27° 144° (SE) 11:51:39 145.800 FM
UKube-1 30 Aug 11:46:20 11:50:28 43° 292° (WNW) 11:54:35 145.840 MHz, 145.915 MHz
SO-50 30 Aug 11:49:47 11:54:09 35° 38° (NE) 11:58:35 436.795 FM
Oscar 11 30 Aug 11:52:48 11:57:05 53° 289° (WNW) 12:01:20 145.825 FM, Beacon 2401.500 USB
Oscar 19 30 Aug 12:00:14 12:01:01 10° 49° (NE) 12:01:47 437.125 CW, 437.150 USB
UOSAT-12 30 Aug 12:11:53 12:14:44 16° 18° (NNE) 12:17:34 437.025 FM, 437.400 FM
FUNcube-1 30 Aug 12:17:06 12:21:36 72° 286° (WNW) 12:26:09 145.950 - 145.970 MHz USB
HO-68 30 Aug 12:29:02 12:35:04 31° 305° (NW) 12:41:06 435.675 MHz FM
Oscar 16 30 Aug 12:31:47 12:35:18 19° 57° (ENE) 12:38:51 437.025 USB, Beacon 2401.1428
Uribyol 2 30 Aug 12:40:41 12:42:25 12° 50° (NE) 12:44:08 436.500 FM
AO-27 30 Aug 12:58:05 13:01:02 16° 54° (NE) 13:03:59 436.795 MHz FM
JAS-1B 30 Aug 13:12:31 13:20:39 34° 57° (ENE) 13:27:55 435.800 - 435.900 CW/SSB
ISS 30 Aug 13:21:57 13:25:17 78° 343° (NNW) 13:28:38 145.800 FM
Gurwin Techsat 1B 30 Aug 13:24:48 13:27:08 13° 51° (NE) 13:29:28 435.225 FM
MaSat-1 30 Aug 13:27:45 13:31:47 25° 106° (ESE) 13:35:59 437.345 MHz
SO-50 30 Aug 13:30:18 13:34:53 48° 238° (WSW) 13:39:32 436.795 FM
Oscar 19 30 Aug 13:34:14 13:39:15 54° 69° (ENE) 13:44:19 437.125 CW, 437.150 USB
UOSAT-12 30 Aug 13:51:37 13:56:07 41° 41° (NE) 14:00:35 437.025 FM, 437.400 FM
RS-15 30 Aug 13:51:55 14:01:46 36° 7° (N) 14:11:47 29.354 - 29.394 USB, Beacon 29.352 USB
AO-7 30 Aug 13:55:36 14:00:19 17° 36° (NE) 14:05:01 29.400 - 29.500 MHz
FUNcube-1 30 Aug 13:55:52 13:57:13 11° 305° (NW) 13:58:34 145.950 - 145.970 MHz USB
AO-Echo 30 Aug 14:04:33 14:09:22 49° 69° (ENE) 14:14:03 ?
ITAMSAT 1 30 Aug 14:05:55 14:10:52 48° 68° (ENE) 14:15:51 435.822 SSB
Oscar 16 30 Aug 14:08:55 14:14:04 79° 256° (WSW) 14:19:18 437.025 USB, Beacon 2401.1428
TMSAT-1 30 Aug 14:14:22 14:18:27 23° 59° (ENE) 14:22:32 436.925 FM
Uribyol 2 30 Aug 14:15:49 14:20:54 61° 70° (ENE) 14:26:00 436.500 FM
AO-27 30 Aug 14:34:37 14:39:48 83° 73° (ENE) 14:45:01 436.795 MHz FM
Uosat F 30 Aug 14:57:56 15:00:06 13° 52° (NE) 15:02:17 435.120 FM
ISS 30 Aug 14:58:58 15:02:14 53° 3° (N) 15:05:31 145.800 FM
JAS-1B 30 Aug 15:00:47 15:10:34 79° 255° (WSW) 15:19:14 435.800 - 435.900 CW/SSB
Gurwin Techsat 1B 30 Aug 15:00:54 15:06:10 67° 71° (ENE) 15:11:27 435.225 FM
MaSat-1 30 Aug 15:03:31 15:08:29 58° 305° (NW) 15:13:37 437.345 MHz
Oscar 19 30 Aug 15:14:44 15:18:54 24° 268° (W) 15:23:07 437.125 CW, 437.150 USB
UOSAT-12 30 Aug 15:31:54 15:36:17 38° 241° (WSW) 15:40:36 437.025 FM, 437.400 FM
AO-7 30 Aug 15:43:20 15:51:16 51° 59° (ENE) 15:59:12 29.400 - 29.500 MHz
AO-Echo 30 Aug 15:44:19 15:48:23 25° 267° (W) 15:52:23 ?
ITAMSAT 1 30 Aug 15:46:16 15:50:36 27° 266° (W) 15:54:59 435.822 SSB
Oscar 16 30 Aug 15:52:25 15:54:18 12° 275° (W) 15:56:12 437.025 USB, Beacon 2401.1428
TMSAT-1 30 Aug 15:52:43 15:57:57 64° 258° (WSW) 16:03:14 436.925 FM
Uribyol 2 30 Aug 15:56:55 16:00:48 21° 269° (W) 16:04:42 436.500 FM
RS-15 30 Aug 16:05:55 16:16:48 60° 39° (NE) 16:28:00 29.354 - 29.394 USB, Beacon 29.352 USB
AO-27 30 Aug 16:16:59 16:19:59 15° 272° (W) 16:23:01 436.795 MHz FM
Uosat F 30 Aug 16:33:03 16:38:02 71° 72° (ENE) 16:43:02 435.120 FM
ISS 30 Aug 16:35:47 16:39:07 78° 203° (SSW) 16:42:27 145.800 FM
Gurwin Techsat 1B 30 Aug 16:42:46 16:46:38 20° 270° (W) 16:50:30 435.225 FM
MaSat-1 30 Aug 16:43:26 16:46:36 16° 327° (NNW) 16:49:47 437.345 MHz
PCSat 30 Aug 16:50:21 16:54:04 19° 106° (ESE) 16:57:48 145.825 MHz
JAS-1B 30 Aug 16:55:15 17:02:07 22° 274° (W) 17:08:34 435.800 - 435.900 CW/SSB
JAS-2 30 Aug 17:29:55 17:35:08 34° 64° (ENE) 17:39:57 435.800 - 435.900 CW/SSB, 435.910 FM
AO-7 30 Aug 17:36:13 17:44:09 47° 260° (W) 17:52:07 29.400 - 29.500 MHz
Hamsat 30 Aug 17:47:34 17:51:33 37° 68° (ENE) 17:55:35 145.90 MHz
OPAL 30 Aug 17:50:03 17:55:07 48° 102° (ESE) 18:00:09 ?
Sapphire 30 Aug 18:02:02 18:07:21 61° 119° (ESE) 18:12:43 437.095 MHz 1200 baud AX-25 AFSK
ISS 30 Aug 18:13:08 18:15:27 18° 221° (SW) 18:17:46 145.800 FM
Uosat F 30 Aug 18:14:02 18:17:21 18° 270° (W) 18:20:41 435.120 FM
RS-15 30 Aug 18:18:36 18:29:11 55° 245° (WSW) 18:40:10 29.354 - 29.394 USB, Beacon 29.352 USB
PCSat 30 Aug 18:31:26 18:36:52 80° 306° (NW) 18:42:20 145.825 MHz
SO-67 30 Aug 18:46:43 18:49:22 21° 66° (ENE) 18:52:02 435.3500 MHz FM
JAS-2 30 Aug 19:14:27 19:20:12 44° 261° (W) 19:25:25 435.800 - 435.900 CW/SSB, 435.910 FM
Hamsat 30 Aug 19:23:58 19:27:37 26° 267° (W) 19:31:19 145.90 MHz
HO-68 30 Aug 19:28:32 19:33:31 21° 48° (NE) 19:38:31 435.675 MHz FM
OPAL 30 Aug 19:29:19 19:33:48 30° 301° (WNW) 19:38:16 ?
STRAND 1 30 Aug 19:33:55 19:38:17 28° 94° (E) 19:42:38 ?
Sapphire 30 Aug 19:46:21 19:51:10 31° 321° (NW) 19:56:00 437.095 MHz 1200 baud AX-25 AFSK
PCSat 30 Aug 20:16:57 20:21:08 22° 328° (NNW) 20:25:22 145.825 MHz
SO-67 30 Aug 20:19:09 20:22:16 31° 264° (W) 20:25:24 435.3500 MHz FM
RS-15 30 Aug 20:35:01 20:38:48 12° 268° (W) 20:42:39 29.354 - 29.394 USB, Beacon 29.352 USB
UKube-1 30 Aug 21:09:54 21:13:48 34° 66° (ENE) 21:17:43 145.840 MHz, 145.915 MHz
STRAND 1 30 Aug 21:12:49 21:17:40 46° 293° (WNW) 21:22:31 ?
HO-68 30 Aug 21:13:05 21:20:12 78° 69° (ENE) 21:27:22 435.675 MHz FM
Oscar 11 30 Aug 21:16:23 21:19:56 25° 64° (ENE) 21:23:31 145.825 FM, Beacon 2401.500 USB
Sapphire 30 Aug 21:33:49 21:36:23 13° 345° (NNW) 21:38:57 437.095 MHz 1200 baud AX-25 AFSK
MaSat-1 30 Aug 21:40:46 21:44:30 21° 39° (NE) 21:47:56 437.345 MHz
FUNcube-1 30 Aug 21:42:45 21:45:46 19° 61° (ENE) 21:48:50 145.950 - 145.970 MHz USB
PCSat 30 Aug 22:04:47 22:06:42 12° 354° (N) 22:08:38 145.825 MHz
UKube-1 30 Aug 22:46:14 22:50:02 29° 264° (W) 22:53:52 145.840 MHz, 145.915 MHz
KITSAT 1 30 Aug 22:51:45 22:56:49 18° 101° (E) 23:01:52 435.175 FM
Oscar 11 30 Aug 22:51:52 22:55:57 40° 262° (W) 23:00:06 145.825 FM, Beacon 2401.500 USB
HO-68 30 Aug 23:03:05 23:08:40 24° 269° (W) 23:14:17 435.675 MHz FM
MaSat-1 30 Aug 23:17:24 23:22:10 75° 242° (WSW) 23:26:17 437.345 MHz
FUNcube-1 30 Aug 23:17:44 23:21:49 52° 260° (W) 23:26:02 145.950 - 145.970 MHz USB
Sapphire 30 Aug 23:19:56 23:22:19 13° 12° (NNE) 23:24:41 437.095 MHz 1200 baud AX-25 AFSK
Saudisat 1A 30 Aug 23:36:36 23:40:53 52° 123° (ESE) 23:45:12 436.775 MHz
PCSat 30 Aug 23:49:23 23:52:34 15° 21° (NNE) 23:55:45 145.825 MHz
KITSAT 1 31 Aug 00:42:50 00:50:53 75° 122° (ESE) 00:58:58 435.175 FM
Sapphire 31 Aug 01:02:55 01:07:38 29° 38° (NE) 01:12:18 437.095 MHz 1200 baud AX-25 AFSK
Saudisat 1A 31 Aug 01:16:48 01:20:42 30° 324° (NW) 01:24:38 436.775 MHz
